Location: Pontbriand
(46.1542°N, 71.2542°W)
Time: 17:09:09
(UTC+00:00)

Envisat - Pass Details

Date: 09 December 2021
Orbit: 764 x 766 km, 98.2° (Epoch: 16 January)

Event Time Altitude Azimuth Distance (km) Brightness Sun altitude
Rises 09:06:10 0° 21° (NNE) 3,243 6.5 -31.8°
Reaches altitude 10° 09:08:41 10° 30° (NNE) 2,312 5.8 -31.4°
Maximum altitude 09:13:20 35° 96° (E) 1,226 4.5 -30.6°
Drops below altitude 10° 09:17:56 10° 162° (SSE) 2,295 5.7 -29.8°
Sets 09:20:25 0° 171° (S) 3,216 6.4 -29.4°
